Regional Weather Roundup
Issued by NWS

Home | Current Version | Previous Version | Text Only | Print | Product List | Glossary On
Versions: 1 2 3 4 5 6 7 8 9 10 11 12 13 14 15 16 17 18 19 20 21 22 23 24 25 26 27
000
ASUS46 KPQR 050910
RWROR

OREGON REGIONAL WEATHER ROUNDUP
NATIONAL WEATHER SERVICE PORTLAND OR
200 AM PDT THU MAY 05 2016

NOTE: "FAIR" INDICATES FEW OR NO CLOUDS BELOW 12,000 FEET WITH
NO SIGNIFICANT WEATHER AND/OR OBSTRUCTIONS TO VISIBILITY.

ORZ001>013-051000-
NORTHWEST OREGON


CITY           SKY/WX    TMP DP  RH WIND       PRES   REMARKS
ASTORIA        CLOUDY    52  46  80 N7        30.04F
NEWPORT        CLOUDY    50  45  81 N13       30.06R
PORTLAND       CLOUDY    55  47  74 NW12      30.00S
VANCOUVER WA   CLOUDY    55  47  74 NW7       30.00R
SCAPPOOSE      CLOUDY    53  45  74 NW6       30.00S
HILLSBORO      CLOUDY    53  45  74 NW10      30.01R
AURORA         CLOUDY    54  48  80 N7        30.01S
MCMINNVILLE    CLOUDY    54  49  83 SW5       30.01F
SALEM          CLOUDY    55  48  77 N7        29.99S
CORVALLIS        N/A     52  46  82 NW9       30.00F
EUGENE         CLOUDY    53  50  89 N3        29.98F
$$

ORZ021-028-051000-
SOUTHWEST OREGON


CITY           SKY/WX    TMP DP  RH WIND       PRES   REMARKS
NORTH BEND     CLOUDY    54  48  82 N20G30    30.01S
BROOKINGS      FOG       52  52 100 CALM      29.89S VSB 1/4
ROSEBURG       CLOUDY    58  51  78 NW3       29.95S
SEXTON SUMMIT  LGT RAIN  46  46 100 N5        29.93F VSB 1/4
MEDFORD        CLOUDY    53  52  96 CALM      29.90F
$$

ORZ014>016-041-051000-
COLUMBIA GORGE


CITY           SKY/WX    TMP DP  RH WIND       PRES   REMARKS
TROUTDALE      CLOUDY    56  48  74 NW3       30.00R
THE DALLES     CLOUDY    57  49  74 NW9       29.92R
$$

ORZ029>031-041-044-049-050-061>064-502-503-505>511-051000-
EASTERN OREGON


CITY           SKY/WX    TMP DP  RH WIND       PRES   REMARKS
REDMOND        LGT RAIN  51  47  86 CALM      29.94F
BEND           CLOUDY    50  48  93 CALM      29.93F
PRINEVILLE     CLOUDY    50  48  93 E3        29.94F
KLAMATH FALLS  CLOUDY    47  43  86 NE3       29.94S
LAKEVIEW       CLOUDY    45  41  87 N8        29.96F
HERMISTON      CLOUDY    56  53  90 S5        29.90R
PENDLETON      MOCLDY    51  48  89 E3        29.91S
JOHN DAY       CLOUDY    51  50  94 E6        29.98F
MEACHAM        NOT AVBL
LA GRANDE      CLOUDY    55  41  58 SE3       29.96R
BAKER CITY     CLOUDY    53  43  68 CALM      29.96R
BURNS          CLOUDY    48  46  93 S6        29.99S
ROME             N/A     55  39  54 CALM      29.94R
ONTARIO        MOCLDY    64  41  42 W13       29.88R
$$




USA.gov is the U.S. government's official web portal to all federal, state and local government web resources and services.